User: anonymous   Login
Location: Unspecified
(0.0000°N, 0.0000°E)
Time: 05:53:08
(UTC+00:00)
Language:

FAISAT - Orbit

View from above orbital plane
View from above orbital plane
View from above satellite
View from above satellite

Ground track
Ground track

The orbit data is extracted from the following two-line orbital elements,

1 23465U 95002C   18267.56735977 +.00000037 +00000-0 +24211-4 0  9993
2 23465 082.9259 307.8428 0038833 078.9941 073.3742 13.71884476185078
Epoch (UTC): 24 September 2018 13:36:59
Eccentricity: 0.0038833
inclination: 82.9259°
perigee height: 964 km
apogee height: 1021 km
right ascension of ascending node: 307.8428°
argument of perigee: 78.9941°
revolutions per day: 13.71884476
mean anomaly at epoch: 73.3742°
orbit number at epoch: 18507

The dashed part of the orbit path shows where the satellite is in the earth's shadow,  

DLR